Location: Lake Almanor
(40.2485°N, 121.1442°W)
Time: 10:48:28
(UTC-08:00)

STARLINK-1080 - Pass Details

Date: 04 February 2020
Orbit: 348 x 351 km, 53.0° (Epoch: 18 February)

Event Time Altitude Azimuth Distance (km) Brightness Sun altitude
Rises 18:19:31 0° 293° (WNW) 2,160 7.6 -10.5°
Reaches altitude 10° 18:22:03 10° 270° (W) 1,313 7.0 -11.0°
Maximum altitude 18:23:53 16° 230° (SW) 1,040 6.0 -11.3°
Drops below altitude 10° 18:25:44 10° 191° (S) 1,308 5.8 -11.7°
Sets 18:28:15 0° 167° (SSE) 2,145 6.6 -12.2°
